owner,sensor,date,latitude,longitude,vertical_datum,wind_speed,wind_to_direction,wind_speed_of_gust,qcFlag 
TABS,ioos:station:wmo:42046:1,2009-07-01T00:00:00Z,27.8903,-94.0367,4.0,0.901387819,340.5598002,2.18,'11111222,11111222,11111222' 
TABS,ioos:station:wmo:42046:1,2009-07-01T00:30:00Z,27.8903,-94.0367,4.0,0.430464865,2.66278408,1.48,'11111222,11111222,11111222' 
TABS,ioos:station:wmo:42046:1,2009-07-01T01:00:00Z,27.8903,-94.0367,4.0,0.692603783,342.3497066,1.91,'11111222,11111222,11111222' 
TABS,ioos:station:wmo:42046:1,2009-07-01T01:30:00Z,27.8903,-94.0367,4.0,0.401123422,265.7108567,0.85,'11111222,11111222,11111222' 
TABS,ioos:station:wmo:42046:1,2009-07-01T02:00:00Z,27.8903,-94.0367,4.0,0.688767014,244.1790684,1.11,'11111222,11111222,11111222' 
TABS,ioos:station:wmo:42046:1,2009-07-01T02:30:00Z,27.8903,-94.0367,4.0,1.062308806,213.091833,1.92,'11111222,11111222,11111222' 
TABS,ioos:station:wmo:42046:1,2009-07-01T03:00:00Z,27.8903,-94.0367,4.0,2.057182539,206.5651995,3.06,'11111222,11111222,11111222' 
TABS,ioos:station:wmo:42046:1,2009-07-01T03:30:00Z,27.8903,-94.0367,4.0,0.907964757,172.4055848,2.24,'11111222,11111222,11111222' 
TABS,ioos:station:wmo:42046:1,2009-07-01T04:00:00Z,27.8903,-94.0367,4.0,1.47122398,177.6629101,2.17,'11111222,11111222,11111222' 
TABS,ioos:station:wmo:42046:1,2009-07-01T04:30:00Z,27.8903,-94.0367,4.0,2.823986544,176.9554391,4.14,'11111222,11111222,11111222' 
TABS,ioos:station:wmo:42046:1,2009-07-01T05:00:00Z,27.8903,-94.0367,4.0,2.147580033,162.6621419,3.02,'11111222,11111222,11111222' 
TABS,ioos:station:wmo:42046:1,2009-07-01T05:30:00Z,27.8903,-94.0367,4.0,1.691892432,177.2900137,2.79,'11111222,11111222,11111222' 
TABS,ioos:station:wmo:42046:1,2009-07-01T06:00:00Z,27.8903,-94.0367,4.0,1.842959576,170.946793,2.83,'11111222,11111222,11111222' 
TABS,ioos:station:wmo:42046:1,2009-07-01T06:30:00Z,27.8903,-94.0367,4.0,1.433910736,167.5147722,2.1,'11111222,11111222,11111222' 
TABS,ioos:station:wmo:42046:1,2009-07-01T07:00:00Z,27.8903,-94.0367,4.0,2.675705514,172.0518252,3.53,'11111222,11111222,11111222' 
TABS,ioos:station:wmo:42046:1,2009-07-01T07:30:00Z,27.8903,-94.0367,4.0,2.04824315,206.690299,2.94,'11111222,11111222,11111222' 
TABS,ioos:station:wmo:42046:1,2009-07-01T08:00:00Z,27.8903,-94.0367,4.0,2.186801317,196.1974955,3.23,'11111222,11111222,11111222' 
TABS,ioos:station:wmo:42046:1,2009-07-01T08:30:00Z,27.8903,-94.0367,4.0,1.60853971,195.5052184,2.29,'11111222,11111222,11111222' 
TABS,ioos:station:wmo:42046:1,2009-07-01T09:00:00Z,27.8903,-94.0367,4.0,1.748284874,174.4200702,2.47,'11111222,11111222,11111222' 
TABS,ioos:station:wmo:42046:1,2009-07-01T09:30:00Z,27.8903,-94.0367,4.0,1.412869421,183.6524247,2.2,'11111222,11111222,11111222' 
TABS,ioos:station:wmo:42046:1,2009-07-01T10:00:00Z,27.8903,-94.0367,4.0,2.045702813,192.1340623,2.77,'11111222,11111222,11111222' 
TABS,ioos:station:wmo:42046:1,2009-07-01T10:30:00Z,27.8903,-94.0367,4.0,1.307822618,246.571362,2.1,'11111222,11111222,11111222' 
TABS,ioos:station:wmo:42046:1,2009-07-01T11:00:00Z,27.8903,-94.0367,4.0,1.183384975,239.5345263,1.92,'11111222,11111222,11111222' 
TABS,ioos:station:wmo:42046:1,2009-07-01T11:30:00Z,27.8903,-94.0367,4.0,1.483947438,230.194522,1.97,'11111222,11111222,11111222' 
TABS,ioos:station:wmo:42046:1,2009-07-01T12:00:00Z,27.8903,-94.0367,4.0,1.817278185,225.2230444,2.36,'11111222,11111222,11111222' 
TABS,ioos:station:wmo:42046:1,2009-07-01T12:30:00Z,27.8903,-94.0367,4.0,1.44402216,239.1724098,2.15,'11111222,11111222,11111222' 
TABS,ioos:station:wmo:42046:1,2009-07-01T13:00:00Z,27.8903,-94.0367,4.0,1.323820229,222.244687,1.85,'11111222,11111222,11111222' 
TABS,ioos:station:wmo:42046:1,2009-07-01T13:30:00Z,27.8903,-94.0367,4.0,1.449965517,245.5561024,1.96,'11111222,11111222,11111222' 
TABS,ioos:station:wmo:42046:1,2009-07-01T14:00:00Z,27.8903,-94.0367,4.0,1.833493932,235.4432749,2.9,'11111222,11111222,11111222' 
TABS,ioos:station:wmo:42046:1,2009-07-01T14:30:00Z,27.8903,-94.0367,4.0,1.402176879,249.1092241,2.22,'11111222,11111222,11111222' 
TABS,ioos:station:wmo:42046:1,2009-07-01T15:00:00Z,27.8903,-94.0367,4.0,2.070869383,271.6602785,2.99,'11111222,11111222,11111222' 
TABS,ioos:station:wmo:42046:1,2009-07-01T15:30:00Z,27.8903,-94.0367,4.0,2.502518731,258.2410777,3.52,'11111222,11111222,11111222' 
TABS,ioos:station:wmo:42046:1,2009-07-01T16:00:00Z,27.8903,-94.0367,4.0,2.885012998,266.6218852,3.85,'11111222,11111222,11111222' 
TABS,ioos:station:wmo:42046:1,2009-07-01T16:30:00Z,27.8903,-94.0367,4.0,2.750727177,278.5719433,3.53,'11111222,11111222,11111222' 
TABS,ioos:station:wmo:42046:1,2009-07-01T17:00:00Z,27.8903,-94.0367,4.0,3.155693268,300.4654737,4.55,'11111222,11111222,11111222' 
TABS,ioos:station:wmo:42046:1,2009-07-01T17:30:00Z,27.8903,-94.0367,4.0,2.956552046,316.3703426,3.98,'11111222,11111222,11111222' 
TABS,ioos:station:wmo:42046:1,2009-07-01T18:00:00Z,27.8903,-94.0367,4.0,2.646828291,327.8109155,3.54,'11111222,11111222,11111222' 
TABS,ioos:station:wmo:42046:1,2009-07-01T18:30:00Z,27.8903,-94.0367,4.0,1.274754878,318.1797175,2.1,'11111222,11111222,11111222' 
TABS,ioos:station:wmo:42046:1,2009-07-01T19:00:00Z,27.8903,-94.0367,4.0,1.478681845,316.9181706,2.44,'11111222,11111222,11111222' 
TABS,ioos:station:wmo:42046:1,2009-07-01T19:30:00Z,27.8903,-94.0367,4.0,1.806017719,300.2563664,2.56,'11111222,11111222,11111222' 
TABS,ioos:station:wmo:42046:1,2009-07-01T20:00:00Z,27.8903,-94.0367,4.0,1.932795902,300.8111672,2.98,'11111222,11111222,11111222' 
TABS,ioos:station:wmo:42046:1,2009-07-01T20:30:00Z,27.8903,-94.0367,4.0,1.596245595,307.8748951,2.71,'11111222,11111222,11111222' 
TABS,ioos:station:wmo:42046:1,2009-07-01T21:00:00Z,27.8903,-94.0367,4.0,1.311030129,291.4767408,2.18,'11111222,11111222,11111222' 
TABS,ioos:station:wmo:42046:1,2009-07-01T21:30:00Z,27.8903,-94.0367,4.0,0.748865809,304.1143932,1.66,'11111222,11111222,11111222' 
TABS,ioos:station:wmo:42046:1,2009-07-01T22:00:00Z,27.8903,-94.0367,4.0,0.892692556,350.3264567,1.69,'11111222,11111222,11111222' 
TABS,ioos:station:wmo:42046:1,2009-07-01T22:30:00Z,27.8903,-94.0367,4.0,1.45,353.266884,2.16,'11111222,11111222,11111222' 
TABS,ioos:station:wmo:42046:1,2009-07-01T23:00:00Z,27.8903,-94.0367,4.0,1.255906047,20.02182596,2.66,'11111222,11111222,11111222' 
TABS,ioos:station:wmo:42046:1,2009-07-01T23:30:00Z,27.8903,-94.0367,4.0,1.158317746,26.12234997,2.08,'11111222,11111222,11111222' 
TABS,ioos:station:wmo:42046:1,2009-07-02T00:00:00Z,27.8903,-94.0367,4.0,1.24036285,35.48368636,1.89,'11111222,11111222,11111222' 
TABS,ioos:station:wmo:42046:1,2009-07-02T00:30:00Z,27.8903,-94.0367,4.0,0.650538239,135.0003157,1.38,'11111222,11111222,11111222' 
TABS,ioos:station:wmo:42046:1,2009-07-02T01:00:00Z,27.8903,-94.0367,4.0,1.559006094,71.68089156,2.29,'11111222,11111222,11111222' 
TABS,ioos:station:wmo:42046:1,2009-07-02T01:30:00Z,27.8903,-94.0367,4.0,2.096783251,109.2130478,2.97,'11111222,11111222,11111222' 
TABS,ioos:station:wmo:42046:1,2009-07-02T02:00:00Z,27.8903,-94.0367,4.0,1.750457083,113.9296197,2.6,'11111222,11111222,11111222' 
TABS,ioos:station:wmo:42046:1,2009-07-02T02:30:00Z,27.8903,-94.0367,4.0,2.260486673,124.1825074,3.31,'11111222,11111222,11111222' 
TABS,ioos:station:wmo:42046:1,2009-07-02T03:00:00Z,27.8903,-94.0367,4.0,2.840158446,131.7176284,4.36,'11111222,11111222,11111222' 
TABS,ioos:station:wmo:42046:1,2009-07-02T03:30:00Z,27.8903,-94.0367,4.0,2.885307609,135.842838,3.69,'11111222,11111222,11111222' 
TABS,ioos:station:wmo:42046:1,2009-07-02T04:00:00Z,27.8903,-94.0367,4.0,4.252481628,143.9927331,5.31,'11111222,11111222,11111222' 
TABS,ioos:station:wmo:42046:1,2009-07-02T04:30:00Z,27.8903,-94.0367,4.0,4.162655403,148.2575235,5.17,'11111222,11111222,11111222' 
TABS,ioos:station:wmo:42046:1,2009-07-02T05:00:00Z,27.8903,-94.0367,4.0,4.371727347,147.3280576,5.5,'11111222,11111222,11111222' 
TABS,ioos:station:wmo:42046:1,2009-07-02T05:30:00Z,27.8903,-94.0367,4.0,4.363897341,158.4914229,5.3,'11111222,11111222,11111222' 
TABS,ioos:station:wmo:42046:1,2009-07-02T06:00:00Z,27.8903,-94.0367,4.0,4.275698773,160.8872814,5.25,'11111222,11111222,11111222' 
TABS,ioos:station:wmo:42046:1,2009-07-02T06:30:00Z,27.8903,-94.0367,4.0,4.393187909,164.8251972,5.38,'11111222,11111222,11111222' 
TABS,ioos:station:wmo:42046:1,2009-07-02T07:00:00Z,27.8903,-94.0367,4.0,4.162271015,174.0704756,5.13,'11111222,11111222,11111222' 
TABS,ioos:station:wmo:42046:1,2009-07-02T07:30:00Z,27.8903,-94.0367,4.0,3.889382984,183.9808615,4.6,'11111222,11111222,11111222' 
TABS,ioos:station:wmo:42046:1,2009-07-02T08:00:00Z,27.8903,-94.0367,4.0,3.878659562,185.6225979,4.53,'11111222,11111222,11111222' 
TABS,ioos:station:wmo:42046:1,2009-07-02T08:30:00Z,27.8903,-94.0367,4.0,3.435942374,189.380268,4.27,'11111222,11111222,11111222' 
TABS,ioos:station:wmo:42046:1,2009-07-02T09:00:00Z,27.8903,-94.0367,4.0,2.923302926,188.6569443,3.76,'11111222,11111222,11111222' 
TABS,ioos:station:wmo:42046:1,2009-07-02T09:30:00Z,27.8903,-94.0367,4.0,2.21081433,197.3696548,2.76,'11111222,11111222,11111222' 
TABS,ioos:station:wmo:42046:1,2009-07-02T10:00:00Z,27.8903,-94.0367,4.0,2.342007686,200.7566413,2.91,'11111222,11111222,11111222' 
TABS,ioos:station:wmo:42046:1,2009-07-02T10:30:00Z,27.8903,-94.0367,4.0,1.750114282,214.0533997,2.23,'11111222,11111222,11111222' 
TABS,ioos:station:wmo:42046:1,2009-07-02T11:00:00Z,27.8903,-94.0367,4.0,1.184736258,201.801569,1.74,'11111222,11111222,11111222' 
TABS,ioos:station:wmo:42046:1,2009-07-02T11:30:00Z,27.8903,-94.0367,4.0,0.926552751,186.8184091,1.38,'11111222,11111222,11111222' 
TABS,ioos:station:wmo:42046:1,2009-07-02T12:00:00Z,27.8903,-94.0367,4.0,0.468721666,191.0703871,0.98,'11111222,11111222,11111222' 
TABS,ioos:station:wmo:42046:1,2009-07-02T12:30:00Z,27.8903,-94.0367,4.0,0.396988665,40.91407709,0.82,'11111222,11111222,11111222' 
TABS,ioos:station:wmo:42046:1,2009-07-02T13:00:00Z,27.8903,-94.0367,4.0,0.620725382,87.22936976,1.03,'11111222,11111222,11111222' 
TABS,ioos:station:wmo:42046:1,2009-07-02T13:30:00Z,27.8903,-94.0367,4.0,1.222865487,129.0260064,1.9,'11111222,11111222,11111222' 
TABS,ioos:station:wmo:42046:1,2009-07-02T14:00:00Z,27.8903,-94.0367,4.0,0.861626369,111.8017794,1.28,'11111222,11111222,11111222' 
TABS,ioos:station:wmo:42046:1,2009-07-02T14:30:00Z,27.8903,-94.0367,4.0,1.260991673,87.72713466,1.72,'11111222,11111222,11111222' 
TABS,ioos:station:wmo:42046:1,2009-07-02T15:00:00Z,27.8903,-94.0367,4.0,1.142365966,76.32830392,2.03,'11111222,11111222,11111222' 
TABS,ioos:station:wmo:42046:1,2009-07-02T15:30:00Z,27.8903,-94.0367,4.0,1.23199026,93.25763524,1.77,'11111222,11111222,11111222' 
TABS,ioos:station:wmo:42046:1,2009-07-02T16:00:00Z,27.8903,-94.0367,4.0,0.948946785,82.12565936,1.63,'11111222,11111222,11111222' 
TABS,ioos:station:wmo:42046:1,2009-07-02T16:30:00Z,27.8903,-94.0367,4.0,1.208139065,83.3451696,1.85,'11111222,11111222,11111222' 
TABS,ioos:station:wmo:42046:1,2009-07-02T17:00:00Z,27.8903,-94.0367,4.0,0.84646323,75.63503022,1.38,'11111222,11111222,11111222' 
TABS,ioos:station:wmo:42046:1,2009-07-02T17:30:00Z,27.8903,-94.0367,4.0,1.530522787,91.49800515,2.29,'11111222,11111222,11111222' 
TABS,ioos:station:wmo:42046:1,2009-07-02T18:00:00Z,27.8903,-94.0367,4.0,2.254617484,112.6984255,3.04,'11111222,11111222,11111222' 
TABS,ioos:station:wmo:42046:1,2009-07-02T18:30:00Z,27.8903,-94.0367,4.0,4.693239819,137.6773479,7.1,'11111222,11111222,11111222' 
TABS,ioos:station:wmo:42046:1,2009-07-02T19:00:00Z,27.8903,-94.0367,4.0,3.090064724,127.2410728,4.49,'11111222,11111222,11111222' 
TABS,ioos:station:wmo:42046:1,2009-07-02T19:30:00Z,27.8903,-94.0367,4.0,2.792579453,140.6675881,3.91,'11111222,11111222,11111222' 
TABS,ioos:station:wmo:42046:1,2009-07-02T20:00:00Z,27.8903,-94.0367,4.0,2.668520189,149.1101711,4.01,'11111222,11111222,11111222' 
TABS,ioos:station:wmo:42046:1,2009-07-02T20:30:00Z,27.8903,-94.0367,4.0,3.292795165,138.0777639,4.36,'11111222,11111222,11111222' 
TABS,ioos:station:wmo:42046:1,2009-07-02T21:00:00Z,27.8903,-94.0367,4.0,3.350492501,154.7354334,4.28,'11111222,11111222,11111222' 
TABS,ioos:station:wmo:42046:1,2009-07-02T21:30:00Z,27.8903,-94.0367,4.0,3.860634663,158.4193247,5.02,'11111222,11111222,11111222' 
TABS,ioos:station:wmo:42046:1,2009-07-02T22:00:00Z,27.8903,-94.0367,4.0,2.550176464,179.3261751,3.53,'11111222,11111222,11111222' 
TABS,ioos:station:wmo:42046:1,2009-07-02T22:30:00Z,27.8903,-94.0367,4.0,0.906035319,142.6244904,1.83,'11111222,11111222,11111222' 
TABS,ioos:station:wmo:42046:1,2009-07-02T23:00:00Z,27.8903,-94.0367,4.0,0.749466477,108.677079,1.28,'11111222,11111222,11111222' 
TABS,ioos:station:wmo:42046:1,2009-07-02T23:30:00Z,27.8903,-94.0367,4.0,1.1501739,90.99676648,1.68,'11111222,11111222,11111222' 
TABS,ioos:station:wmo:42046:1,2009-07-03T00:00:00Z,27.8903,-94.0367,4.0,1.694992625,94.39911599,2.2,'11111222,11111222,11111222' 
TABS,ioos:station:wmo:42046:1,2009-07-03T00:30:00Z,27.8903,-94.0367,4.0,2.102379604,101.5241157,2.83,'11111222,11111222,11111222' 
TABS,ioos:station:wmo:42046:1,2009-07-03T01:00:00Z,27.8903,-94.0367,4.0,2.584511559,121.2302408,3.49,'11111222,11111222,11111222' 
TABS,ioos:station:wmo:42046:1,2009-07-03T01:30:00Z,27.8903,-94.0367,4.0,2.997081914,117.8479341,3.68,'11111222,11111222,11111222' 
TABS,ioos:station:wmo:42046:1,2009-07-03T02:00:00Z,27.8903,-94.0367,4.0,3.079366818,122.4001853,3.97,'11111222,11111222,11111222' 
TABS,ioos:station:wmo:42046:1,2009-07-03T02:30:00Z,27.8903,-94.0367,4.0,3.098644865,140.7629351,4.18,'11111222,11111222,11111222' 
TABS,ioos:station:wmo:42046:1,2009-07-03T03:00:00Z,27.8903,-94.0367,4.0,3.111301978,134.7398827,4.0,'11111222,11111222,11111222' 
TABS,ioos:station:wmo:42046:1,2009-07-03T03:30:00Z,27.8903,-94.0367,4.0,3.463018914,125.4803161,4.31,'11111222,11111222,11111222' 
TABS,ioos:station:wmo:42046:1,2009-07-03T04:00:00Z,27.8903,-94.0367,4.0,3.10567223,107.6185398,4.14,'11111222,11111222,11111222' 
TABS,ioos:station:wmo:42046:1,2009-07-03T04:30:00Z,27.8903,-94.0367,4.0,3.774453603,95.01617589,4.66,'11111222,11111222,11111222' 
TABS,ioos:station:wmo:42046:1,2009-07-03T05:00:00Z,27.8903,-94.0367,4.0,3.202061836,116.7254533,4.07,'11111222,11111222,11111222' 
TABS,ioos:station:wmo:42046:1,2009-07-03T05:30:00Z,27.8903,-94.0367,4.0,3.714417855,145.1978247,5.07,'11111222,11111222,11111222' 
TABS,ioos:station:wmo:42046:1,2009-07-03T06:00:00Z,27.8903,-94.0367,4.0,4.452168011,149.3455137,5.35,'11111222,11111222,11111222' 
TABS,ioos:station:wmo:42046:1,2009-07-03T06:30:00Z,27.8903,-94.0367,4.0,4.210997507,150.0866344,5.56,'11111222,11111222,11111222' 
TABS,ioos:station:wmo:42046:1,2009-07-03T07:00:00Z,27.8903,-94.0367,4.0,4.08447059,150.3597939,5.43,'11111222,11111222,11111222' 
TABS,ioos:station:wmo:42046:1,2009-07-03T07:30:00Z,27.8903,-94.0367,4.0,3.470561914,154.0258772,4.32,'11111222,11111222,11111222' 
TABS,ioos:station:wmo:42046:1,2009-07-03T08:00:00Z,27.8903,-94.0367,4.0,3.551140662,150.4755346,4.38,'11111222,11111222,11111222' 
TABS,ioos:station:wmo:42046:1,2009-07-03T08:30:00Z,27.8903,-94.0367,4.0,3.825101306,145.4377666,4.89,'11111222,11111222,11111222' 
TABS,ioos:station:wmo:42046:1,2009-07-03T09:00:00Z,27.8903,-94.0367,4.0,4.195092371,149.6455332,5.25,'11111222,11111222,11111222' 
TABS,ioos:station:wmo:42046:1,2009-07-03T09:30:00Z,27.8903,-94.0367,4.0,4.74308971,150.3003482,6.3,'11111222,11111222,11111222' 
TABS,ioos:station:wmo:42046:1,2009-07-03T10:00:00Z,27.8903,-94.0367,4.0,4.318668776,156.8190946,5.88,'11111222,11111222,11111222' 
TABS,ioos:station:wmo:42046:1,2009-07-03T10:30:00Z,27.8903,-94.0367,4.0,4.368581005,156.9566665,5.41,'11111222,11111222,11111222' 
TABS,ioos:station:wmo:42046:1,2009-07-03T11:00:00Z,27.8903,-94.0367,4.0,4.410827587,163.5374029,5.68,'11111222,11111222,11111222' 
TABS,ioos:station:wmo:42046:1,2009-07-03T11:30:00Z,27.8903,-94.0367,4.0,3.992605665,158.7051724,5.26,'11111222,11111222,11111222' 
TABS,ioos:station:wmo:42046:1,2009-07-03T12:00:00Z,27.8903,-94.0367,4.0,4.094996947,155.6257901,5.15,'11111222,11111222,11111222' 
TABS,ioos:station:wmo:42046:1,2009-07-03T12:30:00Z,27.8903,-94.0367,4.0,3.263770825,169.585476,4.54,'11111222,11111222,11111222' 
TABS,ioos:station:wmo:42046:1,2009-07-03T13:00:00Z,27.8903,-94.0367,4.0,3.491074333,158.1378992,4.64,'11111222,11111222,11111222' 
TABS,ioos:station:wmo:42046:1,2009-07-03T13:30:00Z,27.8903,-94.0367,4.0,3.850532431,153.634857,4.71,'11111222,11111222,11111222' 
TABS,ioos:station:wmo:42046:1,2009-07-03T14:00:00Z,27.8903,-94.0367,4.0,4.450674106,154.5867376,5.81,'11111222,11111222,11111222' 
TABS,ioos:station:wmo:42046:1,2009-07-03T14:30:00Z,27.8903,-94.0367,4.0,4.324453723,166.2210733,5.7,'11111222,11111222,11111222' 
TABS,ioos:station:wmo:42046:1,2009-07-03T15:00:00Z,27.8903,-94.0367,4.0,5.094948479,175.6101404,6.26,'11111222,11111222,11111222' 
TABS,ioos:station:wmo:42046:1,2009-07-03T15:30:00Z,27.8903,-94.0367,4.0,4.592047474,172.240682,5.53,'11111222,11111222,11111222' 
TABS,ioos:station:wmo:42046:1,2009-07-03T16:00:00Z,27.8903,-94.0367,4.0,4.42366364,182.3322287,5.73,'11111222,11111222,11111222' 
TABS,ioos:station:wmo:42046:1,2009-07-03T16:30:00Z,27.8903,-94.0367,4.0,6.010673839,179.1422699,8.34,'11111222,11111222,11111222' 
TABS,ioos:station:wmo:42046:1,2009-07-03T17:00:00Z,27.8903,-94.0367,4.0,4.589259199,197.36909,5.72,'11111222,11111222,11111222' 
TABS,ioos:station:wmo:42046:1,2009-07-03T17:30:00Z,27.8903,-94.0367,4.0,4.362808728,215.7668033,5.76,'11111222,11111222,11111222' 
TABS,ioos:station:wmo:42046:1,2009-07-03T18:00:00Z,27.8903,-94.0367,4.0,3.291686498,244.0577652,5.02,'11111222,11111222,11111222' 
TABS,ioos:station:wmo:42046:1,2009-07-03T18:30:00Z,27.8903,-94.0367,4.0,2.6346347,244.6021631,3.67,'11111222,11111222,11111222' 
TABS,ioos:station:wmo:42046:1,2009-07-03T19:00:00Z,27.8903,-94.0367,4.0,1.811767093,242.020591,2.48,'11111222,11111222,11111222' 
TABS,ioos:station:wmo:42046:1,2009-07-03T19:30:00Z,27.8903,-94.0367,4.0,1.915880998,265.5095586,2.79,'11111222,11111222,11111222' 
TABS,ioos:station:wmo:42046:1,2009-07-03T20:00:00Z,27.8903,-94.0367,4.0,1.746453549,265.0729016,2.39,'11111222,11111222,11111222' 
TABS,ioos:station:wmo:42046:1,2009-07-03T20:30:00Z,27.8903,-94.0367,4.0,1.794017837,266.1646899,2.85,'11111222,11111222,11111222' 
TABS,ioos:station:wmo:42046:1,2009-07-03T21:00:00Z,27.8903,-94.0367,4.0,0.741484996,280.0974808,1.5,'11111222,11111222,11111222' 
TABS,ioos:station:wmo:42046:1,2009-07-03T21:30:00Z,27.8903,-94.0367,4.0,0.392045916,307.7467171,1.04,'11111222,11111222,11111222' 
TABS,ioos:station:wmo:42046:1,2009-07-03T22:00:00Z,27.8903,-94.0367,4.0,1.113597773,63.89478612,1.95,'11111222,11111222,11111222' 
TABS,ioos:station:wmo:42046:1,2009-07-03T22:30:00Z,27.8903,-94.0367,4.0,1.449965517,114.4443185,2.87,'11111222,11111222,11111222' 
TABS,ioos:station:wmo:42046:1,2009-07-03T23:00:00Z,27.8903,-94.0367,4.0,1.782806776,133.182017,2.97,'11111222,11111222,11111222' 
TABS,ioos:station:wmo:42046:1,2009-07-03T23:30:00Z,27.8903,-94.0367,4.0,1.422708684,137.5640799,2.72,'11111222,11111222,11111222' 
TABS,ioos:station:wmo:42046:1,2009-07-04T00:00:00Z,27.8903,-94.0367,4.0,2.418780685,102.6576647,3.79,'11111222,11111222,11111222' 
TABS,ioos:station:wmo:42046:1,2009-07-04T00:30:00Z,27.8903,-94.0367,4.0,2.595996918,123.6904097,4.12,'11111222,11111222,11111222' 
TABS,ioos:station:wmo:42046:1,2009-07-04T01:00:00Z,27.8903,-94.0367,4.0,3.472823059,124.5598455,4.66,'11111222,11111222,11111222' 
TABS,ioos:station:wmo:42046:1,2009-07-04T01:30:00Z,27.8903,-94.0367,4.0,3.82780616,137.0117205,4.95,'11111222,11111222,11111222' 
TABS,ioos:station:wmo:42046:1,2009-07-04T02:00:00Z,27.8903,-94.0367,4.0,3.939136961,147.4398486,4.84,'11111222,11111222,11111222' 
TABS,ioos:station:wmo:42046:1,2009-07-04T02:30:00Z,27.8903,-94.0367,4.0,3.92562097,148.8613108,5.15,'11111222,11111222,11111222' 
TABS,ioos:station:wmo:42046:1,2009-07-04T03:00:00Z,27.8903,-94.0367,4.0,3.851493217,140.6899617,5.03,'11111222,11111222,11111222' 
TABS,ioos:station:wmo:42046:1,2009-07-04T03:30:00Z,27.8903,-94.0367,4.0,4.493695584,147.2650607,5.51,'11111222,11111222,11111222' 
TABS,ioos:station:wmo:42046:1,2009-07-04T04:00:00Z,27.8903,-94.0367,4.0,4.312586231,139.5142936,5.45,'11111222,11111222,11111222' 
TABS,ioos:station:wmo:42046:1,2009-07-04T04:30:00Z,27.8903,-94.0367,4.0,4.156404696,142.3308486,5.15,'11111222,11111222,11111222' 
TABS,ioos:station:wmo:42046:1,2009-07-04T05:00:00Z,27.8903,-94.0367,4.0,4.509767178,146.0283266,5.76,'11111222,11111222,11111222' 
TABS,ioos:station:wmo:42046:1,2009-07-04T05:30:00Z,27.8903,-94.0367,4.0,4.348241024,152.0208015,5.61,'11111222,11111222,11111222' 
TABS,ioos:station:wmo:42046:1,2009-07-04T06:00:00Z,27.8903,-94.0367,4.0,4.595704516,155.4428154,5.8,'11111222,11111222,11111222' 
TABS,ioos:station:wmo:42046:1,2009-07-04T06:30:00Z,27.8903,-94.0367,4.0,4.966387017,163.0247507,6.31,'11111222,11111222,11111222' 
TABS,ioos:station:wmo:42046:1,2009-07-04T07:00:00Z,27.8903,-94.0367,4.0,5.458800234,163.7232502,6.86,'11111222,11111222,11111222' 
TABS,ioos:station:wmo:42046:1,2009-07-04T07:30:00Z,27.8903,-94.0367,4.0,5.644271432,168.4514081,6.98,'11111222,11111222,11111222' 
TABS,ioos:station:wmo:42046:1,2009-07-04T08:00:00Z,27.8903,-94.0367,4.0,5.481204247,170.1254713,6.87,'11111222,11111222,11111222' 
TABS,ioos:station:wmo:42046:1,2009-07-04T08:30:00Z,27.8903,-94.0367,4.0,5.778477308,171.8420823,7.19,'11111222,11111222,11111222' 
TABS,ioos:station:wmo:42046:1,2009-07-04T09:00:00Z,27.8903,-94.0367,4.0,6.015388599,175.9010309,7.41,'11111222,11111222,11111222' 
TABS,ioos:station:wmo:42046:1,2009-07-04T09:30:00Z,27.8903,-94.0367,4.0,6.280326425,176.7141162,7.72,'11111222,11111222,11111222' 
TABS,ioos:station:wmo:42046:1,2009-07-04T10:00:00Z,27.8903,-94.0367,4.0,6.160008117,179.9071981,7.65,'11111222,11111222,11111222' 
TABS,ioos:station:wmo:42046:1,2009-07-04T10:30:00Z,27.8903,-94.0367,4.0,6.401124901,181.0743779,7.8,'11111222,11111222,11111222' 
TABS,ioos:station:wmo:42046:1,2009-07-04T11:00:00Z,27.8903,-94.0367,4.0,6.350944812,186.5097533,7.75,'11111222,11111222,11111222' 
TABS,ioos:station:wmo:42046:1,2009-07-04T11:30:00Z,27.8903,-94.0367,4.0,6.376284184,193.8838655,7.54,'11111222,11111222,11111222' 
TABS,ioos:station:wmo:42046:1,2009-07-04T12:00:00Z,27.8903,-94.0367,4.0,6.603423355,192.7736797,8.3,'11111222,11111222,11111222' 
TABS,ioos:station:wmo:42046:1,2009-07-04T12:30:00Z,27.8903,-94.0367,4.0,6.090664988,198.0781386,7.59,'11111222,11111222,11111222' 
TABS,ioos:station:wmo:42046:1,2009-07-04T13:00:00Z,27.8903,-94.0367,4.0,5.69106317,203.7275332,7.32,'11111222,11111222,11111222' 
TABS,ioos:station:wmo:42046:1,2009-07-04T13:30:00Z,27.8903,-94.0367,4.0,5.905260367,203.873981,7.49,'11111222,11111222,11111222' 
TABS,ioos:station:wmo:42046:1,2009-07-04T14:00:00Z,27.8903,-94.0367,4.0,6.502430315,203.5689881,8.51,'11111222,11111222,11111222' 
TABS,ioos:station:wmo:42046:1,2009-07-04T14:30:00Z,27.8903,-94.0367,4.0,6.207841815,198.989667,7.88,'11111222,11111222,11111222' 
TABS,ioos:station:wmo:42046:1,2009-07-04T15:00:00Z,27.8903,-94.0367,4.0,5.353821065,207.4745778,6.78,'11111222,11111222,11111222' 
TABS,ioos:station:wmo:42046:1,2009-07-04T15:30:00Z,27.8903,-94.0367,4.0,5.205775639,209.9634463,6.68,'11111222,11111222,11111222' 
TABS,ioos:station:wmo:42046:1,2009-07-04T16:00:00Z,27.8903,-94.0367,4.0,5.224145863,205.6332464,6.62,'11111222,11111222,11111222' 
TABS,ioos:station:wmo:42046:1,2009-07-04T16:30:00Z,27.8903,-94.0367,4.0,4.774620404,202.5369453,5.85,'11111222,11111222,11111222' 
TABS,ioos:station:wmo:42046:1,2009-07-04T17:00:00Z,27.8903,-94.0367,4.0,3.696227807,211.8412071,5.03,'11111222,11111222,11111222' 
TABS,ioos:station:wmo:42046:1,2009-07-04T17:30:00Z,27.8903,-94.0367,4.0,3.186361561,217.7331678,4.03,'11111222,11111222,11111222' 
TABS,ioos:station:wmo:42046:1,2009-07-04T18:00:00Z,27.8903,-94.0367,4.0,3.178458746,217.8434854,4.24,'11111222,11111222,11111222' 
TABS,ioos:station:wmo:42046:1,2009-07-04T18:30:00Z,27.8903,-94.0367,4.0,2.808718569,226.8756149,3.63,'11111222,11111222,11111222' 